Location: Saint-Usage
(47.1052°N, 5.2587°E)
Time: 15:18:42
(UTC+02:00)

ISS - Pass Details

Date: 24 September 2021
Orbit: 417 x 423 km, 51.6° (Epoch: 17 October)

Event Time Altitude Azimuth Distance (km) Brightness Sun altitude
Rises 20:51:50 0° 276° (W) 2,362 1.9 -14.2°
Reaches altitude 10° 20:54:01 10° 284° (WNW) 1,499 0.5 -14.6°
Maximum altitude 20:57:11 37° 354° (N) 667 -2.6 -15.1°
Enters shadow 20:59:01 20° 52° (NE) 1,026 -2.1 -15.4°
